この彗星 P/2012 O3 (CBET 3193参照)は、6月28日、HaleakalaにあるPan-STARRS2の1.8-m
Ritchey-Chretien 反射望遠鏡で得た画像から偶然発見された。新天体として報告され、一夜
観測結果がMPEC 2022-N37に掲載した状態で小惑星センターで自動的に同定された。
中央局からの要請により、R. Weryk (西オンタリオ大学,物理および天文学科)は、4枚の
45-秒WバンドPan-STARRS2サーベイ画像は、彗星状で、彗星の頭部1".5のシーイングで1".7
(半値全幅:FWHM)で、点拡散関数が非対称に見えることから、西に短い尾があるもの思われる
と記した。
佐藤英貴氏(東京都文京区)は、4月10日, オーストラリア NSW Siding Springにある0.51-m
f/6.8 アストログラフの遠隔操作で、この彗星の60-秒12枚のCCD露出から検出前の恒星イメ
ージを同定した。4".4の円形範囲で測定した光度は20.9等であった。
NK 3981の中野主一氏の予報に対し、Delta(T)は、-0.06 dayであった。
MPEC 2022-K19のRudenkoの予報に対する修正値は、Delta(T) = -0.12 dayであった。
彗星年表2021, 2022の佐藤裕久のの軌道に対する修正値は、Delta(T) = -0.06 dayであった
検出位置は次のとおり、
2022 UT R.A. (2000) Decl. Mag. Observer
Apr. 10.79586 21 57 30.66 -22 48 32.7 Sato
10.80118 21 57 31.52 -22 48 26.3 20.9 "
June 28.58263 1 00 07.05 + 7 25 52.6 20.9 Pan-STARRS2
28.58777 1 00 07.62 + 7 26 00.0 20.8 "
28.59282 1 00 08.15 + 7 26 07.1 20.8 "
28.59786 1 00 08.68 + 7 26 14.5 20.8 "
MPCの連結軌道要素と位置推算表は次のとおり、
Orbital elements:
P/2012 O3 (McNaught)
Epoch 2012 Aug. 21.0 TT = JDT 2456160.5
T 2012 Aug. 16.07135 TT Rudenko
q 1.5994446 (2000.0) P Q
n 0.10140589 Peri. 343.64957 +0.77777059 +0.61867518
a 4.5543591 Node 336.99636 -0.54020166 +0.56769377
e 0.6488102 Incl. 16.49663 -0.32133329 +0.54310663
P 9.72
From 320 observations 2012 July 23-2022 June 28, mean residual 0".6.
P/2012 O3 (McNaught)
Epoch 2022 May 21.0 TT = JDT 2459720.5
T 2022 May 29.64482 TT Rudenko
q 1.6139439 (2000.0) P Q
n 0.10076606 Peri. 344.75248 +0.78336589 +0.61093927
a 4.5736177 Node 336.41406 -0.53616781 +0.57107748
e 0.6471188 Incl. 16.61577 -0.31442322 +0.54829164
P 9.78
From 320 observations 2012 July 23-2022 June 28, mean residual 0".6.
P/2012 O3 (McNaught)
Epoch 2022 Aug. 9.0 TT = JDT 2459800.5
T 2022 May 29.63943 TT Rudenko
q 1.6139188 (2000.0) P Q
n 0.10072836 Peri. 344.74876 +0.78332243 +0.61099565
a 4.5747590 Node 336.41375 -0.53621094 +0.57104730
e 0.6472123 Incl. 16.61503 -0.31445794 +0.54826025
P 9.78
From 310 observations 2012 July 23-2022 June 28, mean residual 0".5.
P/2012 O3 (McNaught)
Epoch 2032 Feb. 18.0 TT = JDT 2463280.5
T 2032 Feb. 4.29459 TT Rudenko
q 1.6203330 (2000.0) P Q
n 0.10078203 Peri. 344.07232 +0.77313347 +0.62354858
a 4.5731347 Node 336.14453 -0.54610530 +0.56147312
e 0.6456844 Incl. 16.66516 -0.32254246 +0.54399918
P 9.78
From 320 observations 2012 July 23-2022 June 28, mean residual 0".6.
P/2012 O3 (McNaught)
Epoch 2022 Aug. 9.0 TT = JDT 2459800.5
T 2022 May 29.63944 TT Rudenko
q 1.6139191 (2000.0) P Q
n 0.10072834 Peri. 344.74885 +0.78332292 +0.61099495
a 4.5747595 Node 336.41371 -0.53621055 +0.57104750
e 0.6472122 Incl. 16.61505 -0.31445738 +0.54826082
P 9.78
From 320 observations 2012 July 23-2022 June 28, mean residual 0".6.
Ephemeris:
Date TT R. A. (2000) Decl. Delta r Elong. Phase m1
2022 06 12 00 28 00.0 +00 46 18 1.5731 1.6205 74.0 37.0 19.6
...
2022 06 27 00 57 13.1 +06 48 16 1.4942 1.6431 79.3 37.4 19.5
...
2022 07 05 01 11 26.1 +09 56 47 1.4546 1.6614 82.4 37.3 19.5
...
2022 07 11 01 21 23.2 +12 15 13 1.4259 1.6779 85.0 37.1 19.5
2022 07 12 01 22 58.9 +12 38 01 1.4212 1.6809 85.5 37.1 19.5
2022 07 13 01 24 33.5 +13 00 45 1.4165 1.6839 85.9 37.0 19.5
...
2022 07 19 01 33 36.4 +15 15 16 1.3889 1.7033 88.8 36.6 19.5
...
2022 07 27 01 44 27.6 +18 09 25 1.3531 1.7324 92.9 35.8 19.5
...
2022 08 11 02 00 20.2 +23 16 55 1.2906 1.7957 101.7 33.5 19.6
(MPEC 2022-N81、CBET 5150、oaa-comet 3159)